STARLINK-2054 (47664 NORAD) Tracking and Keplerian Element Data

This shows tracking and keplerian element data for the satellite.

Feedback or suggestion? Click here.




ElementValue
Catalog47664
NameSTARLINK-2054
Epoch Orbit177
Epoch Day101.91668981
Epoch Year2021
RAAN188.9555
Inclination53.0471
Eccentricity0.0001864
Argument of Perigee28.6097
Mean Anonmoly30.6733
Mean Motion15.73204705
Decay Rate-0.00026951
L11 47664U 21012AW 21101.91668981 -.00026951 00000-0 -18813-3 0 9995
L22 47664 53.0471 188.9555 0001864 28.6097 30.6733 15.73204705 1772

Live tracking and technical data element details for STARLINK-2054 (NORAD 47664). STARLINK-2054 can be tracked NOW for your location showing map with azimuth and elevation plus other details from your city location.

Track the satellite on the map from your city or location and see movement details for azimuth, elevation, latitude, longitude, range, height, and movement on the map or in text.







IsCatalogInMostPopularTable: catalog: 47664, numindb: 16
Update: records affected: 1



GetName: 47664 STARLINK-2054

Hit Count: updated at: Tue, 13 Apr 2021 05:34:23 GMT